Flag for Netherlands Weather past 2 weeks in Kralendijk, Bonaire, Netherlands

Now
84 °F

Warm.


Feels Like: 90 °F
Forecast: N/A
Wind: 25 mph from Northeast

Location: Flamingo Airport - Bonaire

Current Time: Mar 5, 2015 at 5:27:38 PM

Latest Report: Mar 5, 2015 at 3:00 PM


Visibility: N/A

Pressure: 29.92 "Hg

Humidity: 66%

Dew point: 72 °F

Location of KralendijkLocation

Historic Weather in Kralendijk — Graph

°F

Kralendijk temperature yesterday

Maximum temperature yesterday: 84 °F (at 1:00 PM)
Minimum temperature yesterday: 75 °F (at 2:00 AM)
Average temperature yesterday: 79 °F

Past Weeks' High & Low Weather Summary

 TemperatureHumidityPressure
High88 °F (Feb 21, 2:00 PM)89% (Mar 3, 7:00 AM)30.04 "Hg (Mar 3, 7:00 AM)
Low73 °F (Mar 3, 6:00 AM)59% (Feb 19, 3:00 PM)29.86 "Hg (Feb 18, 6:00 PM)
Average81 °F73%29.93 "Hg
* Reported Feb 18 4:00 PM — Mar 5 3:00 PM, Kralendijk, Weather by CustomWeather, © 2015

Note: Actual official high and low records may vary slightly from our data, if they occured in-between our weather recording intervals... More about our weather records

Advertising

Kralendijk weather history for previous 24 hours

 ConditionsComfort  
Time TempWeatherWind HumidityBarometerVisibility
3:00 PM
Thu, Mar 5
84 °FWarm.25 mph66%29.92 "HgN/A
2:00 PM84 °FWarm.25 mph70%29.92 "HgN/A
1:00 PM84 °FWarm.26 mph70%29.95 "HgN/A
12:00 PM84 °FScattered clouds.24 mph70%29.98 "HgN/A
11:00 AM84 °FScattered clouds.23 mph74%29.98 "HgN/A
10:00 AM82 °FPassing clouds.25 mph79%29.98 "HgN/A
9:00 AM79 °FScattered clouds.24 mph84%29.98 "HgN/A
8:00 AM75 °FScattered showers. Passing clouds.24 mph89%29.95 "HgN/A
7:00 AM77 °FWarm.21 mph83%29.92 "HgN/A
6:00 AM75 °FMild.24 mph83%29.92 "HgN/A
3:00 AM77 °FWarm.21 mph83%29.92 "HgN/A
2:00 AM79 °FWarm.18 mph79%29.92 "HgN/A
1:00 AM79 °FWarm.21 mph79%29.95 "HgN/A
12:00 AM79 °FWarm.21 mph79%29.95 "HgN/A
11:00 PM
Wed, Mar 4
81 °FWarm.20 mph74%29.95 "HgN/A
10:00 PM79 °FWarm.24 mph79%29.95 "HgN/A
9:00 PM79 °FScattered showers. Passing clouds.23 mph79%29.92 "HgN/A
8:00 PMN/A22 mphN/AN/AN/A
7:00 PM79 °FWarm.21 mph79%29.89 "HgN/A
6:00 PM81 °FScattered showers. Scattered clouds.22 mph74%29.86 "HgN/A
5:00 PM82 °FWarm.24 mph74%N/AN/A
Weather by CustomWeather, © 2015

See weather overviewHow to use our weather pages